Weather History for Clinton, IA

Change the Weather History Date:

Monday, March 4, 2013

  Actual Average Record
Temperature  
Mean Temperature 28 °F -  
Max Temperature 32 °F 43 °F 68 °F (1983)
Min Temperature 23 °F 25 °F -11 °F (2002)
Degree Days  
Heating Degree Days 38    
Moisture  
Dew Point 18 °F    
Average Humidity 68    
Maximum Humidity 80    
Minimum Humidity 54    
Precipitation  
Precipitation 0.00 in - - ()
Sea Level Pressure  
Sea Level Pressure 30.01 in    
Wind  
Wind Speed 15 mph (ESE)    
Max Wind Speed 28 mph    
Max Gust Speed 34 mph    
Visibility 10 miles    
Events      
Averages and records for this station are not official NWS values.
T = Trace of Precipitation, MM = Missing Value Source: NWS Daily Summary

Daily Weather History Graph

Daily Weather History Graph

Search for Another Location

Airport:

Trip Planner

Search our weather history database for the weather conditions in past years. The results will help you decide how hot, cold, wet, or windy it might be!

Date:

Astronomy

Mar. 04, 2013 Rise Set
Actual Time 6:30 AM CST 5:55 PM CST
Civil Twilight 6:03 AM CST 6:23 PM CST
Nautical Twilight 5:30 AM CST 6:55 PM CST
Astronomical Twilight 4:58 AM CST 7:28 PM CST
Moon 12:44 AM CST (3/4) 10:33 AM CST (3/4)
Length of Visible Light 12h 20m
Length of Day
11h 24m
Waning Gibbous, 52% of the Moon is Illuminated
Mar 4
Waning Gibbous
Mar 4
Last Quarter
Mar 11
New
Mar 19
First Quarter
Mar 27
Full

Hourly Weather History & Observations

Time (CST) Temp. Windchill Dew Point Humidity Pressure Visibility Wind Dir Wind Speed Gust Speed Precip Events Conditions
12:15 AM 23.0 °F 13.1 °F 10.4 °F 59% 30.10 in 10.0 mi ESE 9.2 mph - N/A   Partly Cloudy
12:35 AM 23.0 °F 12.4 °F 12.2 °F 63% 30.10 in 10.0 mi ESE 10.4 mph - N/A   Mostly Cloudy
12:55 AM 23.0 °F 12.4 °F 12.2 °F 63% 30.10 in 10.0 mi ESE 10.4 mph - N/A   Overcast
1:15 AM 23.0 °F 11.7 °F 12.2 °F 63% 30.09 in 10.0 mi East 11.5 mph - N/A   Mostly Cloudy
1:35 AM 23.0 °F 12.4 °F 10.4 °F 59% 30.09 in 10.0 mi ESE 10.4 mph - N/A   Clear
1:55 AM 23.0 °F 12.4 °F 10.4 °F 59% 30.09 in 10.0 mi ESE 10.4 mph - N/A   Clear
2:15 AM 24.8 °F 14.6 °F 10.4 °F 54% 30.09 in 10.0 mi ESE 10.4 mph - N/A   Scattered Clouds
2:35 AM 24.8 °F 14.0 °F 10.4 °F 54% 30.08 in 10.0 mi ESE 11.5 mph - N/A   Mostly Cloudy
2:55 AM 23.0 °F 11.7 °F 12.2 °F 63% 30.07 in 10.0 mi ESE 11.5 mph - N/A   Partly Cloudy
3:15 AM 23.0 °F 11.1 °F 10.4 °F 59% 30.06 in 10.0 mi ESE 12.7 mph - N/A   Clear
3:35 AM 23.0 °F 12.4 °F 10.4 °F 59% 30.05 in 10.0 mi ESE 10.4 mph - N/A   Clear
3:55 AM 23.0 °F 11.1 °F 12.2 °F 63% 30.05 in 10.0 mi ESE 12.7 mph - N/A   Mostly Cloudy
4:15 AM 23.0 °F 11.1 °F 12.2 °F 63% 30.04 in 10.0 mi ESE 12.7 mph - N/A   Overcast
4:35 AM 23.0 °F 11.1 °F 12.2 °F 63% 30.05 in 10.0 mi ESE 12.7 mph - N/A   Partly Cloudy
4:55 AM 23.0 °F 10.6 °F 12.2 °F 63% 30.04 in 10.0 mi ESE 13.8 mph - N/A   Mostly Cloudy
5:15 AM 24.8 °F 12.9 °F 14.0 °F 64% 30.04 in 10.0 mi ESE 13.8 mph - N/A   Mostly Cloudy
5:35 AM 24.8 °F 12.9 °F 12.2 °F 59% 30.04 in 10.0 mi ESE 13.8 mph - N/A   Partly Cloudy
6:15 AM 24.8 °F 12.4 °F 15.8 °F 69% 30.03 in 10.0 mi ESE 15.0 mph - N/A   Overcast
6:35 AM 24.8 °F 11.9 °F 15.8 °F 69% 30.03 in 10.0 mi East 16.1 mph - N/A   Overcast
6:55 AM 24.8 °F 11.1 °F 15.8 °F 69% 30.02 in 10.0 mi ESE 18.4 mph - N/A   Overcast
7:15 AM 24.8 °F 11.9 °F 15.8 °F 69% 30.03 in 10.0 mi ESE 16.1 mph - N/A   Overcast
7:35 AM 24.8 °F 11.1 °F 15.8 °F 69% 30.02 in 10.0 mi ESE 18.4 mph - N/A   Scattered Clouds
7:55 AM 24.8 °F 11.9 °F 15.8 °F 69% 30.03 in 10.0 mi ESE 16.1 mph - N/A   Mostly Cloudy
8:15 AM 24.8 °F 10.7 °F 17.6 °F 74% 30.03 in 3.0 mi ESE 19.6 mph - N/A   Overcast
8:35 AM 24.8 °F 10.7 °F 17.6 °F 74% 30.02 in 4.0 mi ESE 19.6 mph - N/A   Mostly Cloudy
8:55 AM 24.8 °F 12.4 °F 19.4 °F 80% 30.04 in 10.0 mi ESE 15.0 mph - N/A   Scattered Clouds
9:15 AM 24.8 °F 11.1 °F 19.4 °F 80% 30.03 in 8.0 mi ESE 18.4 mph 23.0 mph N/A   Mostly Cloudy
9:35 AM 26.6 °F 13.8 °F 19.4 °F 74% 30.03 in 8.0 mi ESE 17.3 mph - N/A   Partly Cloudy
9:55 AM 26.6 °F 13.4 °F 19.4 °F 74% 30.02 in 8.0 mi East 18.4 mph - N/A   Mostly Cloudy
10:15 AM 26.6 °F 13.4 °F 19.4 °F 74% 30.01 in 10.0 mi East 18.4 mph 25.3 mph N/A   Overcast
10:35 AM 26.6 °F 13.1 °F 19.4 °F 74% 30.01 in 10.0 mi East 19.6 mph - N/A   Overcast
10:55 AM 28.4 °F 15.1 °F 19.4 °F 69% 30.00 in 10.0 mi East 20.7 mph - N/A   Overcast
11:15 AM 28.4 °F 14.4 °F 19.4 °F 69% 30.00 in 10.0 mi East 23.0 mph - N/A   Overcast
11:35 AM 28.4 °F 15.4 °F 19.4 °F 69% 30.00 in 10.0 mi East 19.6 mph 24.2 mph N/A   Overcast
11:55 AM 28.4 °F 15.4 °F 21.2 °F 74% 30.00 in 10.0 mi East 19.6 mph 29.9 mph N/A   Mostly Cloudy
12:15 PM 30.2 °F 16.5 °F 21.2 °F 69% 29.99 in 10.0 mi East 24.2 mph 28.8 mph N/A   Scattered Clouds
12:55 PM 30.2 °F 15.7 °F 21.2 °F 69% 29.97 in 10.0 mi ESE 27.6 mph 34.5 mph N/A   Mostly Cloudy
1:15 PM 30.2 °F 15.7 °F 21.2 °F 69% 29.96 in 10.0 mi East 27.6 mph 32.2 mph N/A   Scattered Clouds
1:35 PM 30.2 °F 16.2 °F 21.2 °F 69% 29.95 in 10.0 mi East 25.3 mph 31.1 mph N/A   Partly Cloudy
1:55 PM 30.2 °F 16.8 °F 21.2 °F 69% 29.94 in 10.0 mi East 23.0 mph 32.2 mph N/A   Clear
2:15 PM 32.0 °F 19.8 °F 21.2 °F 64% 29.95 in 10.0 mi East 20.7 mph 29.9 mph N/A   Clear
2:35 PM 32.0 °F 18.9 °F 21.2 °F 64% 29.94 in 10.0 mi East 24.2 mph 31.1 mph N/A   Clear
2:55 PM 32.0 °F 19.5 °F 19.4 °F 60% 29.94 in 10.0 mi East 21.9 mph 28.8 mph N/A   Clear
3:15 PM 30.2 °F 17.1 °F 19.4 °F 64% 29.93 in 10.0 mi East 21.9 mph 33.4 mph N/A   Clear
3:35 PM 30.2 °F 17.4 °F 19.4 °F 64% 29.94 in 10.0 mi ESE 20.7 mph 28.8 mph N/A   Clear
3:55 PM 30.2 °F 17.4 °F 21.2 °F 69% 29.94 in 10.0 mi ESE 20.7 mph - N/A   Partly Cloudy
4:15 PM 30.2 °F 15.9 °F 21.2 °F 69% 29.95 in 10.0 mi ESE 26.5 mph 29.9 mph N/A   Clear
4:35 PM 30.2 °F 16.8 °F 21.2 °F 69% 29.94 in 10.0 mi ESE 23.0 mph 26.5 mph N/A   Partly Cloudy
4:55 PM 30.2 °F 18.1 °F 21.2 °F 69% 29.95 in 10.0 mi East 18.4 mph 24.2 mph N/A   Clear
5:15 PM 30.2 °F 17.4 °F 21.2 °F 69% 29.95 in 10.0 mi East 20.7 mph 25.3 mph N/A   Clear
5:35 PM 28.4 °F 16.2 °F 21.2 °F 74% 29.95 in 10.0 mi East 17.3 mph - N/A   Clear
5:55 PM 28.4 °F 17.0 °F 21.2 °F 74% 29.97 in 10.0 mi East 15.0 mph - N/A   Clear
6:15 PM 28.4 °F 17.5 °F 19.4 °F 69% 29.97 in 10.0 mi East 13.8 mph - N/A   Clear
6:35 PM 28.4 °F 17.5 °F 19.4 °F 69% 29.98 in 10.0 mi East 13.8 mph - N/A   Clear
6:55 PM 28.4 °F 17.5 °F 19.4 °F 69% 29.99 in 10.0 mi East 13.8 mph - N/A   Clear
7:15 PM 28.4 °F 17.5 °F 21.2 °F 74% 29.98 in 10.0 mi East 13.8 mph - N/A   Clear
7:35 PM 28.4 °F 16.6 °F 21.2 °F 74% 29.99 in 10.0 mi East 16.1 mph - N/A   Scattered Clouds
7:55 PM 28.4 °F 17.5 °F 21.2 °F 74% 29.99 in 10.0 mi East 13.8 mph - N/A   Overcast
8:35 PM 28.4 °F 17.0 °F 19.4 °F 69% 29.99 in 10.0 mi East 15.0 mph - N/A   Overcast
8:55 PM 28.4 °F 17.5 °F 21.2 °F 74% 30.00 in 10.0 mi East 13.8 mph - N/A   Mostly Cloudy
9:15 PM 28.4 °F 17.5 °F 21.2 °F 74% 29.99 in 10.0 mi East 13.8 mph - N/A   Overcast
9:35 PM 28.4 °F 17.5 °F 21.2 °F 74% 29.98 in 10.0 mi East 13.8 mph - N/A   Overcast
9:55 PM 28.4 °F 16.6 °F 21.2 °F 74% 29.97 in 10.0 mi East 16.1 mph - N/A   Overcast
10:15 PM 28.4 °F 17.0 °F 21.2 °F 74% 29.98 in 10.0 mi East 15.0 mph - N/A   Overcast
10:35 PM 28.4 °F 17.0 °F 21.2 °F 74% 29.98 in 10.0 mi East 15.0 mph - N/A   Overcast
10:55 PM 30.2 °F 19.8 °F 21.2 °F 69% 29.98 in 10.0 mi East 13.8 mph - N/A   Overcast
11:15 PM 30.2 °F 21.3 °F 21.2 °F 69% 29.98 in 10.0 mi East 10.4 mph - N/A   Overcast
11:35 PM 30.2 °F 20.8 °F 21.2 °F 69% 29.98 in 10.0 mi East 11.5 mph - N/A   Overcast
11:55 PM 30.2 °F 20.8 °F 21.2 °F 69% 29.97 in 10.0 mi East 11.5 mph - N/A   Overcast